Location: Bo?a Wola
(50.4192°N, 19.7966°E)
Time: 13:34:40
(UTC+00:00)

H-2A R/B - Pass Details

Date: 15 June 2024
Orbit: 553 x 569 km, 98.1° (Epoch: 15 July)

Event Time Altitude Azimuth Distance (km) Brightness Sun altitude
Rises 00:25:56 0° 17° (NNE) 2,747 8.9 -12.7°
Reaches altitude 10° 00:28:06 10° 21° (NNE) 1,847 7.5 -12.6°
Maximum altitude 00:32:02 59° 102° (ESE) 650 3.7 -12.3°
Enters shadow 00:35:11 15° 179° (S) 1,525 5.0 -12.1°
